[[{"header":{"parameterUnit":"m.s-1","parameterCategory":1,"la1":30.2991,"la2":30.254,"lo1":-89.0895,"lo2":-89.0444,"dy":0.0017,"dx":0.0017,"nx":28,"ny":28,"refTime":"2025-04-25T03:00:00:Z","depth":0,"parameterNumber":2,"parameterNumberName":"U-component_of_WINDS"},"data":[0,0,0,0,0,0,0,0,0,0,0,0,0,0,0,0,0,0,0,0,0,0,0,0,0,0,0,0,0,0,0,0,0,0,0,0,0,0,0,0,0,0,0,0,0,0,0,0,0,0,0,0,0,0,0,0,0,0,0.5708,0.571,0,0.5858,0.586,0.5862,0.5912,0.5912,0.5911,0.591,0.6069,0.6074,0.6078,0,0,0,0,0,0,0,0,0,0,0,0,0,0.5469,0.5473,0.5708,0.571,0.5712,0.5858,0.586,0.5862,0.5912,0.5911,0.5911,0.591,0.6067,0.6073,0.6079,0,0,0,0,0,0,0,0,0,0,0,0,0,0.5592,0.5475,0.5708,0.5754,0.576,0.5858,0.586,0.5863,0.5912,0.5911,0.5911,0.591,0.6065,0.6072,0.608,0.6143,0,0,0.6102,0.6105,0,0,0,0,0,0,0,0,0.5585,0.56,0.5746,0.5751,0.5758,0.5865,0.5834,0.5957,0.5913,0.5855,0.591,0.5909,0.6002,0.6015,0.6045,0.6151,0.6157,0.6102,0.6107,0.611,0.6112,0,0,0,0,0,0,0,0.5576,0.5594,0.5768,0.5748,0.5755,0.5769,0.5786,0.5858,0.5932,0.586,0.5864,0.5881,0.6006,0.6038,0.6049,0.616,0.6102,0.6108,0.6113,0.6116,0.6325,0.6326,0,0,0,0,0,0,0.5559,0.5587,0.5763,0.5772,0.5667,0.5774,0.5793,0.5832,0.5932,0.5946,0.5881,0.5882,0.6026,0.6041,0.6055,0.6136,0.611,0.6116,0.6121,0.6324,0.6325,0.6327,0,0,0,0,0,0,0.5554,0.5574,0.5757,0.5681,0.5705,0.5779,0.5823,0.5835,0.5868,0.5948,0.5962,0.59,0.6026,0.6045,0.6121,0.6142,0.612,0.6126,0.6323,0.6324,0.6326,0.6298,0,0,0,0,0,0,0.5547,0.5572,0.5596,0.5681,0.5709,0.5819,0.5825,0.5839,0.588,0.5883,0.5969,0.5983,0.6027,0.6109,0.6128,0.6152,0.6132,0.6321,0.6323,0.6326,0.6297,0.6299,0.63,0,0,0,0,0,0.5538,0.5583,0.5597,0.5618,0.574,0.582,0.5836,0.5884,0.5881,0.5907,0.5958,0.598,0.6136,0.6117,0.6138,0.6164,0.632,0.6323,0.6325,0.6297,0.6298,0.63,0,0,0,0,0,0,0.5501,0.5595,0.5612,0.5685,0.5744,0.5828,0.5861,0.5884,0.5946,0.5946,0.6005,0.6024,0.6095,0.6138,0.6114,0.6231,0.623,0.6237,0.6201,0.6203,0.6204,0.6192,0.6138,0,0,0,0,0,0.5501,0.5557,0.5637,0.5694,0.5722,0.5787,0.5823,0.5855,0.5919,0.5944,0.6001,0.6063,0.6126,0.6167,0.623,0.6304,0.6324,0.6332,0.6333,0.6334,0.634,0.6382,0.6386,0.6336,0.6336,0.6336,0,0,0.5503,0.5561,0.5593,0.5688,0.5737,0.5794,0.5807,0.5868,0.5911,0.5954,0.6028,0.6072,0.6146,0.622,0.6256,0.6258,0.6358,0.6337,0.6337,0.6343,0.6385,0.639,0.6394,0.6338,0.6337,0.6337,0,0,0.5534,0.5584,0.5637,0.5685,0.5759,0.5801,0.5814,0.5895,0.5925,0.6,0.6033,0.6087,0.6194,0.6245,0.6285,0.6335,0.6358,0.6354,0.636,0.6401,0.6405,0.6409,0.6427,0.6432,0.6359,0.6359,0.6359,0,0.5527,0.5613,0.5662,0.572,0.5761,0.5801,0.5856,0.5901,0.5992,0.602,0.602,0.6155,0.6207,0.6295,0.6306,0.6338,0.6354,0.6344,0.64,0.6404,0.6409,0.6426,0.6433,0.6358,0.6358,0.6358,0.6358,0,0.5601,0.566,0.5695,0.5779,0.5825,0.5881,0.5939,0.5979,0.6006,0.6049,0.6125,0.6189,0.6265,0.6288,0.6317,0.638,0.6378,0.6388,0.6388,0.6412,0.6429,0.6436,0.6357,0.6357,0.6357,0.6358,0,0,0.5614,0.5724,0.5736,0.5775,0.5859,0.5906,0.5964,0.6037,0.607,0.6132,0.6182,0.6272,0.6281,0.6327,0.6361,0.6397,0.6432,0.6403,0.6405,0.6406,0.6505,0.6497,0.6504,0.6447,0.6449,0.645,0.6499,0,0.5657,0.5761,0.5806,0.589,0.5946,0.5984,0.6035,0.6092,0.6134,0.6188,0.6234,0.6297,0.6305,0.6332,0.6369,0.642,0.6453,0.6417,0.6496,0.6499,0.6477,0.6513,0.6505,0.6548,0.6506,0.6508,0.6508,0,0.572,0.578,0.5869,0.5946,0.5971,0.6015,0.6085,0.6136,0.6203,0.623,0.628,0.6312,0.6376,0.6371,0.646,0.6434,0.647,0.65,0.6503,0.6512,0.6505,0.6524,0.6563,0.6569,0.652,0.6519,0.6518,0,0.5721,0.5824,0.589,0.5922,0.6013,0.6044,0.6083,0.6149,0.6189,0.6251,0.6278,0.6347,0.6385,0.6438,0.6488,0.648,0.6572,0.6571,0.6598,0.6596,0.6616,0.6614,0.6661,0.6638,0.6638,0.6638,0.6638,0,0.5763,0.5816,0.5891,0.5932,0.5993,0.6045,0.6104,0.6146,0.6204,0.6255,0.6293,0.634,0.6403,0.6459,0.6499,0.6566,0.6583,0.6608,0.6618,0.6605,0.6601,0.6629,0.6627,0.664,0.6639,0.6639,0.6639,0,0.5774,0.5826,0.5901,0.5981,0.6002,0.6043,0.6112,0.6154,0.6197,0.626,0.6278,0.6346,0.6413,0.6468,0.6557,0.6584,0.6654,0.6666,0.6631,0.6637,0.666,0.6657,0.6726,0.6738,0.6707,0.6707,0.6707,0,0.5798,0.5839,0.5923,0.5959,0.5998,0.6055,0.6096,0.6149,0.6191,0.6269,0.6301,0.6371,0.6429,0.6535,0.6592,0.666,0.6674,0.6694,0.6685,0.667,0.6674,0.6671,0.6676,0.6695,0.6695,0.6695,0.6695,0,0.5835,0.5858,0.5915,0.5982,0.6029,0.6085,0.6141,0.6168,0.6232,0.6277,0.6345,0.639,0.6479,0.6548,0.6621,0.6664,0.669,0.6697,0.6707,0.6694,0.6672,0.6684,0.6633,0.6695,0.6695,0.6695,0.6695,0.6695,0.5853,0.5891,0.5956,0.6019,0.6066,0.6117,0.616,0.6208,0.6265,0.6341,0.6369,0.6439,0.6504,0.6606,0.6648,0.6704,0.6707,0.6721,0.6725,0.6728,0.6726,0.6662,0.6718,0.6718,0.6718,0.6718,0.6718,0,0.5892,0.5935,0.5992,0.6068,0.6118,0.6136,0.6199,0.624,0.63,0.6358,0.6414,0.6493,0.6559,0.6622,0.6692,0.6724,0.6738,0.6741,0.6739,0.6749,0.6719,0.6704,0.6729,0.6729,0.6729,0.6729,0.6729,0.6729,0.5917,0.5983,0.6014,0.6105,0.6148,0.6216,0.625,0.6298,0.6344,0.643,0.6484,0.6524,0.6584,0.6659,0.6721,0.6738,0.6762,0.6761,0.6781,0.6753,0.6751,0.6749,0.6735,0.6766,0.6766,0.6806,0.6807,0.6807]},{"header":{"parameterUnit":"m.s-1","parameterCategory":1,"la1":30.2991,"la2":30.254,"lo1":-89.0895,"lo2":-89.0444,"dy":0.0017,"dx":0.0017,"nx":28,"ny":28,"refTime":"2025-04-25T03:00:00:Z","depth":0,"parameterNumber":3,"parameterNumberName":"V-component_of_WINDS"},"data":[0,0,0,0,0,0,0,0,0,0,0,0,0,0,0,0,0,0,0,0,0,0,0,0,0,0,0,0,0,0,0,0,0,0,0,0,0,0,0,0,0,0,0,0,0,0,0,0,0,0,0,0,0,0,0,0,0,0,3.1356,3.1355,0,3.1303,3.1303,3.1302,3.1305,3.1306,3.1307,3.1308,3.1247,3.1245,3.1242,0,0,0,0,0,0,0,0,0,0,0,0,0,3.1453,3.1451,3.1356,3.1355,3.1355,3.1303,3.1303,3.1302,3.1305,3.1306,3.1307,3.1308,3.1248,3.1245,3.1242,0,0,0,0,0,0,0,0,0,0,0,0,0,3.1407,3.1451,3.1356,3.135,3.1349,3.1304,3.1303,3.1302,3.1305,3.1306,3.1307,3.1308,3.1249,3.1245,3.1242,3.1196,0,0,3.1231,3.123,0,0,0,0,0,0,0,0,3.1409,3.1403,3.1352,3.1351,3.1349,3.1312,3.1315,3.1266,3.1305,3.1322,3.1308,3.1309,3.1267,3.1262,3.125,3.1194,3.1191,3.1231,3.1229,3.1227,3.1226,0,0,0,0,0,0,0,3.1413,3.1405,3.1335,3.1351,3.1349,3.1348,3.1343,3.1306,3.1288,3.132,3.132,3.1314,3.1267,3.1253,3.1248,3.119,3.1231,3.1228,3.1226,3.1224,3.1094,3.1093,0,0,0,0,0,0,3.1418,3.1408,3.1336,3.1333,3.1383,3.1346,3.134,3.1323,3.1289,3.1285,3.1313,3.1315,3.1259,3.1252,3.1246,3.119,3.1227,3.1224,3.1222,3.1095,3.1094,3.1092,0,0,0,0,0,0,3.142,3.1412,3.1339,3.1371,3.1361,3.1343,3.1324,3.1321,3.1307,3.1284,3.128,3.1303,3.1259,3.1251,3.1209,3.1188,3.1222,3.1219,3.1097,3.1095,3.1093,3.1079,0,0,0,0,0,0,3.1423,3.1412,3.1396,3.137,3.136,3.1304,3.1322,3.1319,3.1302,3.1303,3.1273,3.1269,3.126,3.1214,3.1206,3.1184,3.1216,3.1098,3.1096,3.1093,3.1081,3.1076,3.1072,0,0,0,0,0,3.1426,3.1393,3.1395,3.1387,3.1339,3.1303,3.1297,3.1288,3.1301,3.1283,3.1268,3.127,3.1193,3.121,3.12,3.1177,3.11,3.1097,3.1094,3.1083,3.1077,3.1073,0,0,0,0,0,0,3.1413,3.1389,3.1392,3.1349,3.1329,3.1304,3.1281,3.1283,3.1257,3.1258,3.1248,3.1241,3.1198,3.1184,3.1204,3.1131,3.1147,3.1142,3.1142,3.1137,3.1133,3.1136,3.1213,0,0,0,0,0,3.1406,3.1381,3.136,3.1324,3.1314,3.13,3.1284,3.128,3.1257,3.1247,3.1229,3.1205,3.1175,3.1155,3.1127,3.1079,3.1072,3.1059,3.1055,3.1051,3.1046,3.1019,3.1013,3.1082,3.1082,3.1082,0,0,3.139,3.1373,3.1357,3.1322,3.1305,3.1277,3.1292,3.1262,3.124,3.1242,3.1201,3.1187,3.116,3.1115,3.1094,3.1101,3.1026,3.1047,3.1045,3.1042,3.1016,3.1009,3.1003,3.108,3.108,3.1081,0,0,3.1345,3.1331,3.13,3.1284,3.126,3.1251,3.1243,3.1219,3.121,3.117,3.1171,3.1144,3.1094,3.1074,3.1057,3.1008,3.1008,3.0998,3.0976,3.095,3.0944,3.0939,3.092,3.0914,3.0994,3.0994,3.0994,0,3.1327,3.1287,3.1283,3.1253,3.1237,3.124,3.1207,3.1191,3.1157,3.1145,3.1155,3.1092,3.1073,3.1024,3.1012,3.0999,3.0988,3.1001,3.0946,3.0941,3.0936,3.0918,3.0911,3.0993,3.0993,3.0993,3.0993,0,3.1266,3.1238,3.1215,3.1186,3.1167,3.1136,3.1125,3.1106,3.1104,3.1094,3.1053,3.1031,3.0998,3.0987,3.0983,3.0936,3.0942,3.0949,3.0964,3.0929,3.0911,3.0904,3.0991,3.0992,3.0992,3.0992,0,0,3.1209,3.118,3.1172,3.1159,3.1133,3.111,3.1079,3.1049,3.1033,3.101,3.0982,3.094,3.0947,3.0928,3.0923,3.09,3.0861,3.091,3.0909,3.09,3.0807,3.0801,3.0793,3.0862,3.0861,3.086,3.0809,0,3.1162,3.1108,3.1104,3.1055,3.1029,3.1032,3.1005,3.0985,3.0975,3.0949,3.0937,3.0907,3.0919,3.0908,3.0886,3.0871,3.0842,3.0874,3.0834,3.0832,3.0839,3.0784,3.0777,3.073,3.0802,3.0801,3.08,0,3.1098,3.1076,3.1025,3.1004,3.0993,3.0969,3.0941,3.0918,3.0895,3.0889,3.0869,3.0867,3.0833,3.0852,3.0804,3.0826,3.081,3.08,3.0798,3.0792,3.0813,3.0775,3.0714,3.0707,3.0789,3.079,3.0791,0,3.1061,3.1019,3.0983,3.0971,3.0946,3.0929,3.0917,3.0896,3.0879,3.0854,3.0843,3.0814,3.0797,3.0774,3.0764,3.0779,3.0716,3.0734,3.0708,3.0709,3.0693,3.0694,3.0627,3.0685,3.0686,3.0686,3.0686,0,3.1007,3.0975,3.0966,3.0943,3.0908,3.0903,3.0867,3.0856,3.0838,3.0812,3.0813,3.0788,3.0777,3.075,3.0742,3.0703,3.0696,3.0688,3.0686,3.0687,3.0688,3.0675,3.0677,3.0684,3.0684,3.0685,3.0685,0,3.0958,3.0951,3.0912,3.0892,3.0886,3.0861,3.0843,3.082,3.0812,3.0779,3.0771,3.0756,3.0724,3.0713,3.0674,3.0668,3.0623,3.0624,3.0631,3.063,3.0604,3.0606,3.0525,3.0514,3.0581,3.058,3.058,0,3.0923,3.0899,3.0878,3.0862,3.085,3.0824,3.0807,3.0802,3.0784,3.0757,3.0737,3.0707,3.0682,3.0632,3.0616,3.0586,3.0585,3.0559,3.058,3.0583,3.0583,3.0584,3.0581,3.0554,3.0554,3.0553,3.0553,0,3.0861,3.086,3.0836,3.0812,3.0792,3.0772,3.0753,3.0739,3.073,3.071,3.0679,3.066,3.0622,3.0591,3.0561,3.0546,3.0547,3.0547,3.0539,3.0539,3.0543,3.0539,3.0618,3.0548,3.0548,3.0549,3.0549,3.0549,3.0817,3.0796,3.0778,3.0752,3.0738,3.072,3.0698,3.0688,3.0663,3.0633,3.0631,3.0597,3.0575,3.0535,3.052,3.0492,3.0499,3.0488,3.0485,3.0482,3.0479,3.055,3.0487,3.0487,3.0487,3.0487,3.0487,0,3.0754,3.0744,3.072,3.0694,3.0674,3.068,3.0659,3.064,3.0612,3.0593,3.0569,3.0533,3.0504,3.0487,3.0457,3.0438,3.0437,3.043,3.043,3.0427,3.0476,3.0485,3.0431,3.0431,3.0431,3.0431,3.0431,3.0431,3.0719,3.0684,3.068,3.0637,3.0626,3.0595,3.0583,3.0566,3.055,3.0512,3.0488,3.0478,3.0459,3.0428,3.0401,3.0397,3.0384,3.0376,3.0372,3.0418,3.0423,3.0429,3.0437,3.0374,3.0374,3.0325,3.0325,3.0324]}]]